Starlink 33671

operational
NORAD ID: 63320 Int'l Des: 2025-057 Owner: SPXS Country: US Constellation: starlink
LEOCIRCULAR

关于 Starlink 33671

正在加载描述...

实时位置

正在加载3D地球...

即将过境

高度历史

Altitude vs Time

uPlot chart will show altitude changes over time

两行轨道根数

1 63320U 25057P 25259.45616757 .00029688 00000-0 10840-2 0 9995
2 63320 43.0033 284.1948 0001405 269.9414 90.1276 15.27581955 29251
Epoch: Sep 16, 2025 • Age: 10 hours

当前状态

高度 484.3 km
速度 7.62 km/s
星下点 -9.67°S, 158.04°E
发射日期 Mar 18, 2025
运行时间 0.4 years
类型 internet

技术详情

分类 Payload
质量 575.00 kg
干质量 530.00 kg
总质量 575.00 kg
长度 0.30 m
直径 4.10 m
跨度 29.00 m
形状 Box + pan
制造商 SPXS
平台类型 Starlink V2MO
阶段状态 In Orbit
所有者/国家 SPXS/US

大型星座

Loading constellations...